CAPE
0 12 4 10 68 53 53 99 90 11 10 5 3 1 2 0 0 0 0 0 0 182 875 1143 1268 1135 1085 1511 1315 1625 1694 1214 1852 1708 1742 1721 1791 1716 1798 1703 1686 2014 1388 1079 1296 1346 1323 1250 768
0 21 82 220 126 41 74 105 60 6 10 3 56 23 51 0 0 0 0 0 32 624 980 1091 1219 1182 1130 1443 1504 1530 1465 1728 1642 1666 1416 1496 1735 1605 1652 1849 1728 1537 1488 1171 1256 1382 1237 1224 1018
0 22 178 257 46 41 67 101 55 68 9 87 238 169 69 0 0 0 0 43 264 701 1062 1379 1130 1198 1120 1394 1434 1636 1408 1403 1603 1673 1548 1717 1584 1722 1885 1656 1658 1553 1520 1501 1402 1339 1376 1369 1191
8 31 124 117 17 20 14 84 138 142 227 248 152 68 0 0 0 0 7 75 515 788 1293 1262 932 886 1007 1433 1320 1856 1663 1643 1510 1476 1736 1794 1663 1308 1429 1647 1620 1634 1536 1519 1496 1457 1352 1332 1127
245 351 36 0 4 15 14 62 157 268 373 315 54 0 1 1 0 0 4 270 464 908 1421 1370 1053 1124 1309 1243 1512 1529 1790 1513 1631 1657 1804 1859 1826 1707 1527 1506 1552 1619 1611 1529 1443 1295 1213 1105 1012
261 0 0 1 0 7 50 121 264 445 291 12 0 0 3 0 0 0 84 478 607 892 1255 1306 1240 1415 1407 1431 1302 1758 1480 1360 1550 1606 1796 1953 2036 2074 1644 1553 1594 1610 1581 1552 1488 1482 1310 1159 756
23 0 0 0 0 0 103 204 342 449 309 98 16 0 0 0 0 0 424 512 689 966 1216 1239 1330 1220 1400 1209 1783 1299 1193 1319 1562 1618 1511 1556 1637 1750 1757 1718 1565 1504 1475 1396 1337 1431 1266 1073 920
223 12 4 10 0 0 73 163 505 544 401 221 52 0 0 0 0 0 542 494 700 909 1007 1028 994 995 1049 1555 1797 1087 1258 1386 1513 1486 1341 1232 1306 1310 1473 1318 1489 1435 1294 1314 1219 1248 1141 833 916
560 199 27 9 0 0 59 121 578 454 290 283 249 0 0 0 0 128 423 459 485 785 848 921 783 783 818 1828 1511 1134 1371 1483 1517 1423 1324 538 762 1016 1133 859 1199 1340 1176 1120 1186 1102 1037 750 564
331 250 122 33 1 1 6 373 606 446 478 260 110 9 0 0 5 179 356 374 419 398 743 762 475 455 805 1344 1177 687 1050 1268 1203 818 159 38 525 772 926 1029 1101 1228 1125 1169 1140 787 812 879 407
214 216 84 96 4 9 2 6 398 510 477 340 44 0 0 1 200 196 256 530 523 427 677 496 266 459 519 492 311 266 482 723 830 315 0 53 315 276 466 488 794 783 872 758 1047 837 983 877 790
41 99 147 103 55 47 19 17 590 601 514 249 32 13 0 123 221 236 255 609 606 544 541 302 171 445 481 105 0 3 157 433 710 17 0 62 85 245 162 545 587 651 859 961 1075 887 973 1098 867
0 6 22 29 52 31 27 6 142 165 472 164 0 0 16 151 233 267 373 567 619 557 333 110 220 484 444 50 0 195 298 518 664 113 0 241 292 161 0 4 14 277 877 1012 827 938 1052 461 466
0 0 0 3 11 35 12 23 428 581 396 171 7 0 35 249 305 361 449 463 438 435 192 33 157 469 432 246 0 219 305 282 552 578 0 468 489 372 204 191 409 523 706 1171 908 786 464 423 199
0 0 0 0 21 2 14 5 662 617 350 241 114 27 165 384 339 477 480 495 419 263 91 29 94 369 411 291 10 215 419 247 485 853 383 1014 729 583 538 511 481 795 859 1026 1091 895 561 187 379
0 0 0 0 28 22 20 32 220 573 504 367 249 223 215 389 435 345 382 403 310 353 12 0 116 326 504 468 339 689 336 244 462 855 699 1019 988 722 566 774 803 864 1045 1045 746 646 363 211 235
0 0 0 0 2 47 43 41 298 713 490 455 325 309 231 277 336 329 277 286 240 358 130 34 49 316 521 585 401 339 403 177 303 780 569 584 810 914 463 610 700 799 966 1097 842 609 194 58 65
0 0 0 0 0 43 74 56 333 444 644 479 429 323 203 230 249 230 244 200 229 189 182 53 27 291 433 346 219 142 280 313 423 368 349 326 494 927 1073 768 734 451 775 868 706 604 460 466 281
0 0 0 0 0 2 96 88 137 408 520 661 651 595 393 265 249 164 190 184 164 138 214 63 42 155 206 221 170 30 117 176 283 156 327 402 425 603 693 723 689 687 711 741 538 642 71 2 0
0 0 0 0 0 0 88 106 129 231 277 534 490 399 462 525 362 192 108 171 123 112 245 116 58 34 121 86 113 68 23 89 201 174 186 453 511 815 1089 724 923 896 896 880 914 763 108 3 0
0 0 0 0 0 0 65 111 32 20 0 109 257 213 323 297 438 317 210 191 214 86 138 105 124 108 197 233 147 100 64 0 188 211 0 508 648 995 1191 1145 978 1060 914 870 623 649 270 0 0
0 0 0 0 0 0 0 45 59 59 29 0 27 193 194 206 162 390 340 324 309 111 73 49 232 231 262 390 208 141 5 0 192 153 1 163 836 955 1163 944 1025 983 959 793 614 828 670 41 0
0 0 0 0 0 0 0 4 68 63 34 5 55 180 89 127 101 115 418 427 324 115 47 94 241 294 334 488 361 236 161 202 350 179 18 0 615 803 854 900 1258 818 976 1011 852 940 387 3 0
0 0 0 0 0 0 0 0 2 13 7 7 62 90 115 5 28 92 208 336 251 102 71 90 273 320 387 491 451 320 227 121 262 205 64 0 15 408 704 845 1378 1015 632 1052 920 904 1010 917 22
0 0 0 0 0 0 0 0 0 0 17 14 16 44 109 15 7 57 64 109 77 147 183 51 258 363 392 424 451 414 344 196 22 61 38 53 1 131 271 637 1437 1305 934 896 911 1073 1106 476 657
0 0 0 0 0 0 0 0 0 0 0 27 44 72 89 40 33 66 135 90 140 160 246 184 165 343 455 390 386 485 406 360 196 128 75 0 20 187 296 598 1314 1541 1292 1048 988 1117 1058 925 631
0 0 0 0 0 0 0 0 0 0 0 5 24 54 63 54 57 76 194 139 128 220 297 355 256 263 536 524 519 543 501 402 287 240 17 23 64 186 560 696 1238 1442 1523 1315 1287 1050 1502 1329 1032
0 0 0 0 0 0 0 0 0 0 0 0 11 35 63 97 66 140 250 228 179 259 349 450 461 352 444 680 563 501 657 825 515 271 188 171 110 384 719 1021 1168 1413 1437 1493 1376 1181 1327 1504 1477
0 0 0 0 0 0 0 0 0 0 0 0 0 16 152 272 213 442 310 295 177 173 384 552 630 543 555 695 857 684 508 415 998 972 257 133 291 677 737 980 1248 1343 1452 1361 1400 1219 1159 1358 1725
0 0 0 0 0 0 0 0 0 0 0 0 0 0 53 466 567 625 379 305 234 208 279 575 767 737 684 693 775 904 959 798 390 658 1363 796 332 230 516 1363 1431 1251 1336 1477 1372 1350 1321 1326 1419
CIN
0 -110 -105 -122 -21 -40 -68 -41 -95 -67 -57 -116 -158 -100 -83 -19 0 0 0 0 0 -27 0 0 0 0 -3 0 -1 0 0 -8 0 0 0 0 0 0 0 0 0 0 -2 -15 -7 -4 -2 0 -12
0 -106 -37 -10 -16 -32 -44 -48 -38 -58 -83 -119 -80 -54 -78 0 0 0 0 -45 -87 -3 0 -1 0 -1 -2 0 0 0 0 0 0 0 0 0 0 0 0 0 -1 0 0 -6 -9 -5 -4 0 -8
0 -125 -25 -1 -51 -34 -23 -27 -47 -47 -62 -77 -75 -85 -102 0 0 0 0 -79 -19 -2 -2 0 -2 -4 -8 0 0 0 0 0 0 0 0 0 0 0 0 0 0 0 0 0 -7 -12 -7 -3 -10
-164 -129 -39 -17 -23 -23 -33 -13 -33 -48 -19 -52 -99 -122 0 0 0 0 -128 -55 -7 -3 -1 0 -13 -18 -14 0 -3 0 0 0 0 0 0 -1 0 -1 0 0 0 0 0 -5 -8 -10 -12 -8 -19
-29 -18 -49 0 -73 -40 -40 -19 -34 -34 -59 -63 -124 0 0 0 0 0 -130 -10 -21 -1 0 0 -10 -8 -2 -3 0 0 0 0 -1 0 -1 0 0 0 0 0 0 0 -1 -6 -11 -18 -16 -17 -15
-31 0 0 -31 -2 -81 -56 -40 -3 -41 -95 -137 0 0 -1 0 0 0 -59 -12 -18 -3 0 0 0 0 0 0 0 0 0 0 0 0 0 0 0 0 -5 -10 -6 -5 -9 -16 -15 -8 -14 -22 -19
-7 0 0 0 -47 -7 -103 -107 -41 -66 -96 -171 -236 0 0 0 0 0 -9 -19 -14 -7 -1 0 0 -2 0 -4 0 -5 -11 -3 0 0 -4 -2 -3 -1 -5 -10 -18 -26 -25 -29 -26 -15 -16 -31 -32
-53 -123 -116 -83 -1 0 -60 -64 -4 -34 -72 -176 -283 0 0 0 0 -2 -17 -17 -13 -11 -14 -9 -14 -26 -18 0 0 -26 -15 -8 -4 -1 -13 -22 -19 -14 -12 -25 -22 -24 -37 -31 -32 -25 -34 -44 -30
-11 -35 -52 -39 -3 0 -78 -39 -15 -82 -143 -140 -159 -170 0 0 0 -52 -13 -11 -16 -13 -20 -23 -46 -48 -39 -1 -4 -28 -15 -10 -6 -14 -35 -101 -77 -43 -23 -34 -30 -26 -43 -38 -31 -34 -34 -38 -41
-14 -45 -66 -72 -53 -9 -116 -53 -61 -84 -105 -161 -266 -148 0 0 -31 -79 -29 -15 -19 -33 -20 -46 -83 -84 -48 -13 -34 -58 -39 -32 -39 -68 -139 -30 -112 -87 -60 -34 -23 -30 -43 -33 -32 -43 -43 -33 -47
-81 -81 -97 -83 -75 -101 -54 -118 -52 -113 -124 -125 -298 -39 0 -233 -113 -87 -61 -25 -38 -63 -38 -72 -106 -85 -89 -81 -93 -100 -89 -78 -71 -103 0 -158 -124 -136 -103 -85 -58 -53 -51 -61 -42 -38 -40 -38 -32
-158 -144 -102 -93 -83 -64 -65 -111 -52 -86 -110 -207 -315 -460 0 -232 -139 -107 -93 -33 -31 -48 -62 -92 -108 -87 -99 -110 0 -12 -149 -106 -79 -57 0 -159 -162 -119 -160 -76 -68 -60 -45 -43 -45 -48 -52 -43 -44
0 -216 -148 -78 -86 -53 -123 -71 -58 -77 -175 -288 0 0 -360 -209 -139 -102 -67 -39 -42 -58 -77 -106 -96 -82 -106 -111 0 -104 -108 -99 -84 -41 0 -103 -81 -144 -1 -78 -86 -93 -68 -42 -40 -43 -38 -40 -57
0 0 0 -56 -38 -85 -60 -103 -56 -130 -249 -268 -197 0 -264 -165 -136 -97 -57 -54 -61 -73 -101 -118 -93 -84 -102 -92 0 -82 -95 -92 -78 -78 0 -80 -80 -90 -116 -125 -87 -60 -49 -41 -38 -41 -41 -38 -51
0 0 0 0 -24 -39 -87 -53 -67 -137 -171 -219 -204 -198 -174 -95 -106 -92 -107 -91 -81 -99 -111 -115 -89 -89 -85 -94 -82 -71 -72 -86 -72 -61 -86 -63 -69 -72 -62 -66 -57 -57 -43 -36 -41 -31 -41 -52 -36
0 0 0 0 -77 -62 -32 -26 -126 -173 -188 -186 -206 -169 -141 -108 -96 -110 -99 -84 -75 -70 -43 0 -82 -78 -67 -84 -73 -42 -83 -92 -56 -39 -49 -49 -47 -62 -70 -51 -42 -59 -37 -36 -42 -32 -36 -40 -26
0 0 0 0 -36 -95 -75 -64 -114 -132 -156 -256 -223 -200 -165 -136 -80 -94 -94 -103 -90 -80 -114 -119 -102 -69 -61 -54 -47 -45 -51 -95 -61 -39 -39 -42 -47 -50 -60 -49 -48 -40 -43 -35 -31 -37 -39 -35 -41
0 0 0 0 0 -79 -78 -78 -116 -160 -150 -196 -210 -186 -203 -268 -162 -122 -107 -101 -67 -107 -96 -124 -109 -67 -58 -64 -63 -66 -56 -59 -73 -65 -43 -52 -41 -42 -39 -39 -47 -57 -35 -38 -38 -34 -35 -31 -31
0 0 0 0 0 -5 -53 -94 -165 -173 -103 -171 -152 -174 -212 -216 -162 -108 -113 -91 -53 -102 -92 -132 -131 -94 -77 -85 -87 -139 -112 -97 -93 -137 -82 -58 -45 -39 -47 -39 -42 -51 -37 -27 -28 -31 -60 -17 -1
0 0 0 0 0 0 -57 -53 -181 -197 -194 -189 -231 -248 -215 -224 -177 -103 -84 -86 -91 -131 -103 -124 -130 -131 -121 -140 -128 -151 -191 -147 -103 -109 -107 -56 -44 -36 -33 -43 -36 -37 -31 -24 -28 -21 -29 -30 0
0 0 0 0 0 0 -64 -67 -97 -56 0 -193 -233 -232 -307 -310 -278 -155 -76 -86 -73 -124 -149 -172 -145 -136 -135 -144 -151 -168 -189 0 -124 -135 0 -65 -41 -26 -27 -26 -34 -29 -33 -27 -31 -33 -25 0 0
0 0 0 0 0 0 0 -21 -90 -189 -200 0 -301 -306 -298 -290 -330 -202 -92 -81 -83 -140 -166 -192 -142 -153 -154 -151 -175 -203 -246 0 -186 -172 -14 -129 -38 -31 -26 -25 -33 -35 -36 -29 -29 -30 -31 -27 0
0 0 0 0 0 0 0 -6 -85 -228 -145 -307 -333 -313 -315 -289 -259 -280 -166 -148 -114 -130 -209 -196 -157 -160 -176 -161 -185 -221 -244 -241 -182 -195 -235 0 -63 -33 -28 -25 -27 -39 -38 -33 -33 -27 -42 -3 0
0 0 0 0 0 0 0 0 -37 -169 -161 -243 -330 -388 -300 -423 -353 -289 -224 -167 -131 -153 -220 -224 -166 -181 -198 -177 -183 -222 -262 -308 -245 -225 -232 0 -266 -101 -46 -27 -26 -30 -49 -36 -33 -31 -28 -30 -25
0 0 0 0 0 0 0 0 0 0 -228 -186 -273 -388 -334 -405 -442 -340 -252 -303 -218 -212 -213 -295 -220 -193 -224 -209 -210 -218 -254 -292 -356 -305 -299 -250 -58 -191 -132 -66 -27 -28 -40 -43 -42 -31 -29 -65 -34
0 0 0 0 0 0 0 0 0 0 0 -318 -298 -302 -321 -405 -340 -375 -286 -247 -272 -245 -227 -270 -310 -256 -237 -257 -268 -249 -267 -255 -297 -299 -298 0 -299 -171 -135 -87 -34 -31 -36 -36 -48 -34 -33 -36 -56
0 0 0 0 0 0 0 0 0 0 0 -193 -264 -357 -311 -344 -334 -346 -289 -261 -302 -282 -281 -274 -331 -332 -276 -269 -271 -271 -269 -282 -322 -304 -367 -357 -284 -192 -115 -97 -47 -46 -43 -46 -38 -44 -24 -31 -54
0 0 0 0 0 0 0 0 0 0 0 0 -88 -261 -233 -221 -282 -307 -270 -297 -301 -321 -321 -305 -333 -356 -345 -284 -308 -315 -285 -242 -288 -323 -314 -283 -294 -176 -104 -94 -68 -49 -54 -53 -50 -46 -43 -33 -41
0 0 0 0 0 0 0 0 0 0 0 0 0 -171 -180 -201 -216 -260 -287 -308 -301 -342 -351 -360 -345 -354 -359 -328 -279 -292 -347 -369 -222 -209 -344 -332 -246 -154 -151 -109 -77 -66 -53 -65 -59 -59 -50 -45 -39
0 0 0 0 0 0 0 0 0 0 0 0 0 0 -166 -208 -193 -240 -263 -299 -305 -351 -377 -385 -373 -384 -386 -370 -341 -320 -294 -308 -406 -321 -176 -229 -285 -282 -227 -85 -64 -82 -73 -80 -66 -66 -63 -66 -83
Wind_Speed
22 23 18 15 15 15 17 22 17 18 17 21 27 21 21 6 22 22 36 36 32 30 29 28 27 25 21 20 19 17 17 20 11 7 2 11 17 19 26 28 28 27 27 27 26 24 22 18 20
22 18 15 14 14 13 1 18 18 16 18 23 17 20 15 19 14 10 29 36 32 29 28 27 27 26 24 21 19 16 19 19 12 5 5 9 11 18 23 27 26 25 26 26 26 25 23 19 13
13 18 13 13 11 10 11 20 15 13 20 22 17 7 18 21 25 18 32 33 31 29 28 26 27 26 24 24 18 19 27 13 9 4 8 7 10 13 22 23 23 25 26 26 25 24 24 24 12
11 14 15 13 16 17 16 12 17 20 21 10 17 11 15 23 31 14 34 31 31 29 26 25 28 26 25 27 23 26 29 25 26 13 7 8 15 15 15 20 27 27 26 25 24 23 22 22 23
16 15 13 14 14 17 16 21 26 18 9 12 15 14 18 26 22 31 32 30 31 29 25 25 27 27 27 27 27 29 29 29 25 21 6 8 13 18 15 24 25 25 24 23 23 22 20 21 22
12 14 12 13 15 18 18 21 26 8 12 15 14 17 20 26 31 32 29 29 29 27 23 24 27 28 28 29 29 29 29 26 22 21 12 10 12 16 22 22 23 24 24 23 21 20 18 19 21
9 11 12 16 18 14 13 22 27 16 12 11 18 13 19 31 29 27 27 27 27 25 23 22 27 28 27 29 30 29 29 25 23 24 25 22 19 18 22 22 24 24 23 22 20 19 19 20 24
15 15 16 15 16 15 11 26 23 15 10 16 17 11 23 34 31 23 26 26 24 24 23 23 24 26 25 31 30 30 28 27 26 26 26 25 22 21 23 24 23 23 21 21 20 20 21 21 22
17 16 14 11 13 15 12 15 17 8 12 9 13 12 28 35 30 25 25 26 25 24 26 25 23 25 26 30 30 28 28 27 26 26 25 25 22 22 21 23 22 21 20 20 19 19 20 21 22
9 5 12 9 13 18 19 21 17 10 10 9 10 18 31 31 29 28 28 27 27 27 28 27 25 24 28 31 30 28 27 27 26 26 25 25 25 22 22 22 22 21 19 19 19 19 19 21 21
5 20 24 21 16 16 9 11 14 11 13 14 17 24 30 30 29 28 27 27 27 27 27 28 27 25 30 32 31 29 28 27 26 26 24 24 23 24 23 23 21 20 18 17 17 17 17 17 19
27 30 28 27 20 13 7 17 7 8 17 15 19 27 31 30 30 28 26 27 27 26 27 27 29 29 32 32 32 31 29 28 27 28 26 26 24 22 22 22 21 20 18 16 16 18 17 15 17
35 35 30 31 25 24 9 15 21 20 15 18 21 26 26 28 28 25 23 26 26 26 26 28 29 32 34 33 32 31 30 28 28 27 25 23 24 23 21 21 20 19 18 17 17 17 16 17 17
20 37 36 32 31 19 8 11 16 5 18 18 22 25 25 27 28 25 24 27 27 27 28 30 31 34 36 33 33 31 30 28 27 27 25 23 23 22 22 21 19 19 17 17 17 18 20 17 20
42 39 38 33 5 10 8 20 9 6 11 18 22 23 25 25 28 28 26 27 28 27 29 34 34 34 34 35 33 31 28 29 28 27 26 23 23 22 21 19 19 18 17 17 18 18 17 17 17
21 30 40 28 8 14 11 4 4 18 15 20 22 22 24 27 29 25 26 27 29 30 31 36 35 35 33 35 34 30 27 29 29 27 26 24 22 21 21 19 20 18 17 18 18 19 16 17 18
29 35 26 23 10 9 15 5 7 21 19 15 19 23 24 23 30 30 32 31 33 32 33 36 34 34 33 33 34 30 25 29 28 28 25 23 21 21 20 19 19 17 16 17 18 18 17 18 19
27 28 30 29 8 10 11 6 17 23 21 15 19 24 21 22 26 31 35 36 39 26 31 34 36 35 36 31 34 34 30 28 25 27 25 22 21 21 20 19 18 17 17 19 18 17 17 17 18
34 34 38 32 23 13 13 12 19 20 17 18 22 26 19 22 22 30 34 38 42 21 33 34 35 36 31 32 34 36 34 32 29 25 25 24 21 20 19 19 18 17 18 18 17 17 19 20 19
39 40 43 39 37 18 15 15 17 16 19 22 21 17 14 19 19 25 35 40 45 41 36 36 35 34 35 35 38 37 35 33 30 28 25 24 22 20 19 18 18 18 18 17 18 18 20 20 21
36 38 42 35 33 31 9 15 13 15 12 24 28 25 20 26 24 27 32 41 45 43 36 34 36 33 33 30 34 35 36 35 31 30 26 23 23 21 20 18 17 17 17 17 18 19 19 20 21
35 36 41 36 34 36 20 24 17 17 27 36 34 32 23 22 21 29 31 40 45 44 39 33 31 33 31 27 31 33 33 30 32 30 27 22 23 22 20 18 17 17 17 17 17 19 18 19 19
42 34 41 41 35 35 42 28 26 20 27 43 40 37 29 22 25 27 36 39 44 43 39 35 31 31 30 32 29 28 28 32 31 29 27 23 22 22 21 18 17 17 16 18 17 18 18 18 16
32 35 42 42 38 48 51 33 30 21 37 39 45 41 37 27 31 32 35 35 42 42 38 35 32 32 30 32 30 27 30 30 29 26 26 26 23 23 22 20 18 17 15 17 18 17 17 17 15
40 31 38 42 44 44 43 36 37 25 40 39 42 43 41 36 36 34 34 31 39 40 40 37 35 33 31 30 31 30 32 30 29 28 26 25 24 23 23 20 19 18 17 16 15 15 16 16 14
38 40 34 37 40 39 33 38 32 19 33 46 42 40 42 38 33 38 37 37 34 36 38 39 37 36 32 33 32 30 30 30 30 30 26 26 24 22 20 20 19 18 16 15 14 13 13 13 12
39 47 37 32 30 35 38 38 34 35 8 33 40 48 47 45 36 38 39 39 34 34 37 39 37 36 36 35 31 32 33 32 32 33 32 29 24 22 20 18 18 18 16 14 13 13 12 11 12
48 29 37 40 45 40 38 45 47 44 34 18 27 32 48 46 37 40 36 39 38 35 35 37 37 38 36 35 36 32 31 30 33 34 32 26 20 15 14 16 15 16 16 15 13 13 12 13 12
42 48 41 38 38 44 42 47 38 45 48 30 17 27 40 42 39 43 39 37 41 36 34 34 35 36 35 35 34 35 34 34 33 30 29 26 18 13 11 11 12 11 14 16 13 14 13 14 16
55 39 43 42 40 42 37 46 29 34 36 43 47 25 35 42 42 47 41 37 41 37 33 32 33 33 34 35 35 36 33 34 31 29 25 24 25 25 20 10 14 16 17 16 18 18 15 15 18
Wind_Direction
132 155 183 185 188 194 207 167 196 81 79 109 122 135 109 277 132 173 144 134 121 117 114 111 109 101 89 83 76 68 62 67 49 45 48 43 51 56 77 95 95 88 84 84 83 69 53 33 42
124 190 216 235 222 233 65 111 102 93 101 106 76 88 105 116 221 177 124 129 122 114 113 110 110 105 96 87 79 68 68 65 50 39 37 37 38 53 67 87 84 77 86 92 92 83 63 39 20
76 191 263 274 285 283 278 148 81 60 94 107 82 326 109 112 110 130 128 122 118 115 112 111 111 108 99 96 80 75 93 53 43 36 37 25 33 37 64 67 66 82 94 106 106 106 106 102 21
290 272 261 319 260 233 234 117 82 84 93 24 77 4 60 155 120 162 123 120 118 116 112 110 113 110 104 105 92 98 108 87 85 51 27 27 44 41 39 54 92 107 112 111 113 117 122 126 133
248 288 332 326 304 240 257 215 134 90 4 55 81 39 81 116 109 120 122 120 120 117 112 111 112 112 111 109 107 112 108 116 152 159 208 25 39 53 72 137 133 126 129 127 123 121 127 134 139
319 272 344 315 292 269 258 214 185 31 42 70 52 72 94 114 120 124 121 120 120 117 111 111 114 115 117 117 119 120 123 152 165 166 192 192 182 128 150 146 139 129 128 129 127 127 136 144 151
284 317 160 216 260 309 275 219 183 95 61 36 95 71 101 126 124 120 121 118 119 117 113 110 118 119 117 122 130 129 143 159 164 157 148 154 165 167 150 149 138 127 131 131 131 128 134 142 140
264 304 287 326 11 66 73 172 148 90 342 75 97 89 127 137 131 118 121 120 119 119 117 115 114 118 115 143 134 139 154 153 151 148 141 143 153 155 146 137 137 133 135 133 133 130 129 136 142
264 298 311 351 52 37 327 106 107 19 70 323 101 86 131 135 131 123 123 124 124 124 125 122 117 118 119 159 154 160 161 162 163 157 153 143 153 153 151 140 142 140 138 136 135 136 134 135 138
283 335 302 67 69 122 100 123 95 53 47 32 45 101 130 134 135 134 135 133 134 133 134 130 125 120 129 158 163 171 171 170 167 160 145 142 135 146 144 145 140 140 144 144 141 138 137 127 127
279 179 174 209 298 268 325 37 109 77 82 102 108 125 137 137 139 138 140 139 139 138 136 138 134 128 142 158 159 174 176 170 161 157 152 148 148 139 139 127 142 140 146 150 147 148 151 143 139
240 193 197 223 239 318 58 216 65 112 133 105 116 131 139 143 144 144 142 143 143 141 142 140 143 142 157 161 164 169 173 162 160 152 144 140 131 154 132 128 133 138 135 146 147 138 142 151 143
203 208 225 217 210 238 338 298 246 234 87 102 112 129 136 142 146 144 140 145 145 146 146 147 148 153 163 163 171 173 168 166 164 165 162 142 134 135 147 132 140 146 143 140 136 131 134 133 126
255 214 224 246 246 273 334 285 256 68 108 104 117 135 139 146 149 147 147 150 151 151 152 153 153 160 168 173 174 171 174 169 170 166 155 151 141 136 139 138 139 144 137 134 133 134 128 125 104
231 232 241 260 257 262 315 264 335 93 101 108 121 135 145 149 154 158 157 155 157 155 156 161 161 162 166 177 181 180 181 176 174 167 162 155 142 130 141 147 148 138 132 129 133 143 127 124 113
258 260 230 266 209 266 257 246 137 128 122 125 129 137 150 157 163 160 160 162 163 161 161 167 166 166 163 172 176 187 192 169 167 165 160 149 144 139 135 135 142 141 133 142 137 113 124 112 112
254 249 260 269 187 252 262 269 174 152 148 137 140 144 147 158 170 171 171 168 170 169 167 170 167 166 162 161 175 198 206 177 172 161 154 150 136 135 129 131 129 139 143 135 137 116 113 113 126
249 251 255 259 213 245 238 229 165 168 162 154 149 153 152 157 170 172 176 177 180 165 169 170 169 169 171 164 176 190 203 200 199 169 163 153 147 139 138 131 124 140 148 136 138 130 130 130 137
250 248 245 252 261 215 225 215 181 172 170 159 159 167 171 168 164 173 175 179 187 200 169 169 169 171 166 168 175 184 184 190 194 178 174 167 149 144 139 139 136 136 135 139 135 134 134 123 129
245 244 238 245 245 271 204 206 189 186 180 169 164 167 170 167 169 173 179 183 189 182 173 172 171 170 174 176 191 205 184 192 193 194 181 166 157 148 141 141 136 137 138 134 141 130 121 122 123
247 246 239 247 248 259 214 244 210 242 215 175 181 175 159 175 173 176 177 184 189 183 174 172 173 172 172 170 178 211 193 203 192 196 180 165 163 154 151 146 142 140 139 141 141 139 115 113 127
247 244 241 246 252 250 258 255 231 210 188 192 190 191 178 170 166 176 177 181 187 184 178 174 173 173 172 168 171 175 177 176 185 188 179 166 165 162 159 150 143 147 143 142 143 145 130 113 114
243 244 242 243 253 254 246 262 257 215 194 201 199 198 187 177 172 170 178 179 185 182 179 176 175 174 173 174 173 172 173 182 184 184 181 170 167 169 167 157 147 144 140 150 147 141 131 126 108
246 245 243 246 251 248 238 255 258 205 192 196 203 202 193 182 181 176 177 176 182 181 178 176 176 177 176 176 176 175 178 179 177 173 177 178 172 174 171 164 159 154 144 148 152 141 137 128 101
237 238 240 242 241 247 242 254 255 191 194 193 195 198 193 194 186 176 174 170 176 178 178 178 179 180 178 178 179 179 181 180 179 179 177 176 176 175 177 171 167 162 158 150 146 148 141 136 113
239 234 238 239 242 246 248 250 251 191 193 202 195 193 189 187 179 180 180 176 174 177 178 180 181 182 180 181 181 179 180 182 184 184 178 181 179 177 174 174 171 168 160 157 150 146 139 136 127
233 234 239 246 253 249 248 250 254 247 228 187 196 206 201 197 184 182 183 180 174 176 179 181 181 182 182 182 180 181 183 184 187 191 192 189 180 179 177 173 172 170 164 158 151 154 151 145 141
232 237 230 236 240 245 247 241 235 237 247 198 187 188 195 193 186 183 180 180 178 177 177 179 181 183 182 182 183 182 182 184 190 193 192 186 181 174 172 173 172 174 174 171 165 162 159 164 159
228 229 236 239 241 241 242 239 238 235 228 249 214 189 187 187 183 183 180 179 181 178 176 178 179 181 182 182 182 185 186 188 189 188 190 189 182 181 182 180 177 175 179 180 175 175 172 175 178
228 234 232 234 234 239 244 237 243 236 238 240 246 207 190 187 182 185 181 178 180 179 176 177 179 179 181 182 183 186 186 188 188 190 188 188 191 191 187 182 182 185 185 182 184 186 180 182 187